Flight Information

DEPARTURE
OAKLAND, CA
Elevation:
9
Runways:
15/33 - 3376x75 - ASPH-G
12/30 - 10520x150 - ASPH-G
10R/28L - 6213x150 - ASPH-G
10L/28R - 5458x150 - ASPH-G
ATIS:
133.775 510-635-5850
Clearance Delivery:
121.1
Ground:
121.75 (RWY 12-30)
121.9 (RWY 10L-28R, RWY 10R-28L, RWY 15-33)
Tower:
OAKLAND TOWER
118.3 (RWYS 10L-28R,10R-28L,15-33)
127.2 (RWY 12-30)
DESTINATION
,
Elevation:
TPA:
1000 (est.)


6896.5 NM69° True-15° Var53° HDG

Flight Plan:
(click to file on line)

1. Type
2. Aircraft Identification
3. Aircraft Type / Special Equipment
4. True Airspeed
kts
5. Departure Airport
(ICAO code)
6. Arriving Airport
(ICAO code)
7. Cruising Altitude
ft
8. Alternate Airport
(ICAO code)
9. Route of Flight
10. Remarks


00:00:00 Departure ATIS: Destination ATIS:

Clearance Limit:
Route:
Altitude: Expect in minutes
Frequency:
Transponder: (7500 Hijack / 7600 Lost Comms / 7700 Emergency)


KOAK 101453Z 29007KT 10SM SCT008 16/12 A3002 RMK AO2 SLP164 T01560117 53012
Time: 2020-07-10T14:53:00Z
1594393065
Winds: 290 @ 7 kts
Visibility: 10.0 sm
Clouds (AGL): SCT 800
Temperature: 15.6 C
Dew Point: 11.7 C
Pressure: 30.02067 in Hgbr


Notes:

Data extracted from FAA Digital Chart Supplement. Effective: 0901Z Thursday, May 21, 2020 to 0901Z Thursday, Jul 16, 2020
Current ATIS data is provided courtisy of PilotEdge.